Time,TemperatureF,DewpointF,PressureIn,WindDirection,WindDirectionDegrees,WindSpeedMPH,WindSpeedGustMPH,Humidity,HourlyPrecipIn,Conditions,Clouds,dailyrainin,SoftwareType,DateUTC
2013-06-23 00:01:00,81.4,68.0,29.80,SE,135,4.3,12.1,64,0.00,,,0.00,WUHU216HW,2013-06-23 05:01:00,
2013-06-23 00:06:00,81.0,67.7,29.80,South,180,4.7,12.1,64,0.00,,,0.00,WUHU216HW,2013-06-23 05:06:00,
2013-06-23 00:11:00,80.8,68.0,29.80,SSE,158,3.4,6.3,65,0.00,,,0.00,WUHU216HW,2013-06-23 05:11:00,
2013-06-23 00:16:00,80.6,67.8,29.79,SSE,158,3.6,5.1,65,0.00,,,0.00,WUHU216HW,2013-06-23 05:16:00,
2013-06-23 00:21:00,80.5,68.0,29.79,SE,135,4.3,6.0,66,0.00,,,0.00,WUHU216HW,2013-06-23 05:21:00,
2013-06-23 00:26:00,80.3,67.9,29.80,South,180,4.7,6.7,66,0.00,,,0.00,WUHU216HW,2013-06-23 05:26:00,
2013-06-23 00:31:00,80.3,67.9,29.80,SSE,158,7.4,7.4,66,0.00,,,0.00,WUHU216HW,2013-06-23 05:31:00,
2013-06-23 00:36:00,80.1,68.1,29.80,South,180,3.8,7.4,67,0.00,,,0.00,WUHU216HW,2013-06-23 05:36:00,
2013-06-23 00:41:00,79.9,68.0,29.80,SSE,158,9.2,9.2,67,0.00,,,0.00,WUHU216HW,2013-06-23 05:41:00,
2013-06-23 00:46:00,79.7,68.2,29.80,SE,135,3.4,9.2,68,0.00,,,0.00,WUHU216HW,2013-06-23 05:46:00,
2013-06-23 00:51:00,79.6,68.0,29.80,SSW,203,2.7,7.2,68,0.00,,,0.00,WUHU216HW,2013-06-23 05:51:00,
2013-06-23 00:56:00,79.6,68.5,29.80,South,180,5.4,8.5,69,0.00,,,0.00,WUHU216HW,2013-06-23 05:56:00,
2013-06-23 01:01:00,79.4,68.3,29.80,SSE,158,3.4,8.5,69,0.00,,,0.00,WUHU216HW,2013-06-23 06:01:00,
2013-06-23 01:06:00,79.2,68.1,29.79,South,180,4.3,7.6,69,0.00,,,0.00,WUHU216HW,2013-06-23 06:06:00,
2013-06-23 01:11:00,78.8,67.8,29.80,SSE,158,6.0,7.6,69,0.00,,,0.00,WUHU216HW,2013-06-23 06:11:00,
2013-06-23 01:16:00,78.8,68.2,29.79,SSW,203,8.1,8.1,70,0.00,,,0.00,WUHU216HW,2013-06-23 06:16:00,
2013-06-23 01:21:00,78.7,68.0,29.79,SSE,158,5.8,8.1,70,0.00,,,0.00,WUHU216HW,2013-06-23 06:21:00,
2013-06-23 01:26:00,78.5,67.9,29.79,South,180,4.0,5.8,70,0.00,,,0.00,WUHU216HW,2013-06-23 06:26:00,
2013-06-23 01:31:00,78.3,68.1,29.79,SSE,158,3.8,5.4,71,0.00,,,0.00,WUHU216HW,2013-06-23 06:31:00,
2013-06-23 01:36:00,78.1,68.0,29.79,SSE,158,2.7,5.1,71,0.00,,,0.00,WUHU216HW,2013-06-23 06:36:00,
2013-06-23 01:41:00,78.1,68.0,29.79,South,180,6.7,6.7,71,0.00,,,0.00,WUHU216HW,2013-06-23 06:41:00,
2013-06-23 01:46:00,77.9,68.2,29.79,South,180,4.7,6.7,72,0.00,,,0.00,WUHU216HW,2013-06-23 06:46:00,
2013-06-23 01:51:00,77.8,68.1,29.79,SE,135,1.3,6.3,72,0.00,,,0.00,WUHU216HW,2013-06-23 06:51:00,
2013-06-23 01:56:00,77.6,68.2,29.79,SSW,203,2.2,4.0,73,0.00,,,0.00,WUHU216HW,2013-06-23 06:56:00,
2013-06-23 02:01:00,77.4,68.5,29.79,SW,225,2.5,6.7,74,0.00,,,0.00,WUHU216HW,2013-06-23 07:01:00,
2013-06-23 02:06:00,77.2,68.7,29.80,SSE,158,3.8,6.7,75,0.00,,,0.00,WUHU216HW,2013-06-23 07:06:00,
2013-06-23 02:11:00,77.0,68.5,29.79,SSE,158,2.9,5.4,75,0.00,,,0.00,WUHU216HW,2013-06-23 07:11:00,
2013-06-23 02:16:00,77.0,68.9,29.79,South,180,3.1,5.8,76,0.00,,,0.00,WUHU216HW,2013-06-23 07:16:00,
2013-06-23 02:21:00,76.9,68.7,29.79,SSE,158,4.0,5.8,76,0.00,,,0.00,WUHU216HW,2013-06-23 07:21:00,
2013-06-23 02:26:00,76.7,68.5,29.79,SSE,158,3.6,6.9,76,0.00,,,0.00,WUHU216HW,2013-06-23 07:26:00,
2013-06-23 02:31:00,76.7,69.0,29.80,SSE,158,3.4,6.9,77,0.00,,,0.00,WUHU216HW,2013-06-23 07:31:00,
2013-06-23 02:36:00,76.5,68.8,29.79,South,180,6.9,6.9,77,0.00,,,0.00,WUHU216HW,2013-06-23 07:36:00,
2013-06-23 02:41:00,76.3,68.6,29.79,SE,135,3.6,6.9,77,0.00,,,0.00,WUHU216HW,2013-06-23 07:41:00,
2013-06-23 02:46:00,76.1,68.4,29.79,SSW,203,4.5,6.3,77,0.00,,,0.00,WUHU216HW,2013-06-23 07:46:00,
2013-06-23 02:51:00,76.1,68.4,29.79,SW,225,2.5,5.6,77,0.00,,,0.00,WUHU216HW,2013-06-23 07:51:00,
2013-06-23 02:56:00,76.0,68.7,29.79,SSE,158,3.4,5.6,78,0.00,,,0.00,WUHU216HW,2013-06-23 07:56:00,
2013-06-23 03:01:00,75.8,68.5,29.78,South,180,4.0,5.6,78,0.00,,,0.00,WUHU216HW,2013-06-23 08:01:00,
2013-06-23 03:06:00,75.6,68.3,29.78,South,180,4.7,5.6,78,0.00,,,0.00,WUHU216HW,2013-06-23 08:06:00,
2013-06-23 03:11:00,75.6,68.7,29.78,SSE,158,6.0,6.7,79,0.00,,,0.00,WUHU216HW,2013-06-23 08:11:00,
2013-06-23 03:16:00,75.4,68.5,29.78,SSE,158,3.1,6.7,79,0.00,,,0.00,WUHU216HW,2013-06-23 08:16:00,
2013-06-23 03:21:00,75.4,68.5,29.78,SSW,203,1.8,5.1,79,0.00,,,0.00,WUHU216HW,2013-06-23 08:21:00,
2013-06-23 03:26:00,75.2,68.4,29.77,South,180,4.9,5.6,79,0.00,,,0.00,WUHU216HW,2013-06-23 08:26:00,
2013-06-23 03:31:00,75.2,68.4,29.78,SW,225,2.2,5.6,79,0.00,,,0.00,WUHU216HW,2013-06-23 08:31:00,
2013-06-23 03:36:00,75.1,68.6,29.78,SSE,158,4.9,4.9,80,0.00,,,0.00,WUHU216HW,2013-06-23 08:36:00,
2013-06-23 03:41:00,75.1,69.0,29.78,South,180,3.4,4.9,81,0.00,,,0.00,WUHU216HW,2013-06-23 08:41:00,
2013-06-23 03:46:00,74.9,68.8,29.78,SSE,158,3.4,3.6,81,0.00,,,0.00,WUHU216HW,2013-06-23 08:46:00,
2013-06-23 03:51:00,74.9,68.8,29.78,South,180,3.4,4.9,81,0.00,,,0.00,WUHU216HW,2013-06-23 08:51:00,
2013-06-23 03:56:00,74.9,69.1,29.78,South,180,2.0,7.2,82,0.00,,,0.00,WUHU216HW,2013-06-23 08:56:00,
2013-06-23 04:01:00,74.7,69.0,29.78,South,180,5.1,7.2,82,0.00,,,0.00,WUHU216HW,2013-06-23 09:01:00,
2013-06-23 04:06:00,74.7,69.0,29.78,South,180,0.4,5.6,82,0.00,,,0.00,WUHU216HW,2013-06-23 09:06:00,
2013-06-23 04:11:00,74.7,69.0,29.78,SSE,158,4.7,5.6,82,0.00,,,0.00,WUHU216HW,2013-06-23 09:11:00,
2013-06-23 04:16:00,74.5,68.8,29.78,South,180,1.8,4.7,82,0.00,,,0.00,WUHU216HW,2013-06-23 09:16:00,
2013-06-23 04:21:00,74.5,69.0,29.78,SW,225,2.9,4.3,83,0.00,,,0.00,WUHU216HW,2013-06-23 09:21:00,
2013-06-23 04:26:00,74.5,69.0,29.78,South,180,5.4,6.0,83,0.00,,,0.00,WUHU216HW,2013-06-23 09:26:00,
2013-06-23 04:31:00,74.5,69.0,29.78,South,180,6.9,6.9,83,0.00,,,0.00,WUHU216HW,2013-06-23 09:31:00,
2013-06-23 04:36:00,74.5,69.0,29.78,SSE,158,1.8,6.9,83,0.00,,,0.00,WUHU216HW,2013-06-23 09:36:00,
2013-06-23 04:41:00,74.5,69.0,29.78,SSW,203,5.1,6.3,83,0.00,,,0.00,WUHU216HW,2013-06-23 09:41:00,
2013-06-23 04:46:00,74.5,69.0,29.78,ESE,113,2.9,6.3,83,0.00,,,0.00,WUHU216HW,2013-06-23 09:46:00,
2013-06-23 04:51:00,74.5,69.0,29.78,SW,225,6.9,6.9,83,0.00,,,0.00,WUHU216HW,2013-06-23 09:51:00,
2013-06-23 04:56:00,74.5,69.0,29.78,South,180,1.3,6.9,83,0.00,,,0.00,WUHU216HW,2013-06-23 09:56:00,
2013-06-23 05:01:00,74.5,69.0,29.78,SSW,203,4.7,6.3,83,0.00,,,0.00,WUHU216HW,2013-06-23 10:01:00,
2013-06-23 05:06:00,74.3,68.9,29.78,SSE,158,2.9,4.7,83,0.00,,,0.00,WUHU216HW,2013-06-23 10:06:00,
2013-06-23 05:11:00,74.2,68.7,29.78,South,180,1.6,4.0,83,0.00,,,0.00,WUHU216HW,2013-06-23 10:11:00,
2013-06-23 05:16:00,74.2,69.0,29.78,East,90,1.3,5.4,84,0.00,,,0.00,WUHU216HW,2013-06-23 10:16:00,
2013-06-23 05:21:00,74.2,68.7,29.78,South,180,1.6,5.4,83,0.00,,,0.00,WUHU216HW,2013-06-23 10:21:00,
2013-06-23 05:26:00,74.0,68.5,29.78,South,180,3.4,5.4,83,0.00,,,0.00,WUHU216HW,2013-06-23 10:26:00,
2013-06-23 05:31:00,74.0,68.9,29.78,SSW,203,2.9,5.4,84,0.00,,,0.00,WUHU216HW,2013-06-23 10:31:00,
2013-06-23 05:36:00,74.0,68.9,29.77,South,180,0.7,4.3,84,0.00,,,0.00,WUHU216HW,2013-06-23 10:36:00,
2013-06-23 05:41:00,73.8,68.7,29.78,ESE,113,3.4,4.3,84,0.00,,,0.00,WUHU216HW,2013-06-23 10:41:00,
2013-06-23 05:46:00,73.8,69.0,29.78,South,180,1.8,3.8,85,0.00,,,0.00,WUHU216HW,2013-06-23 10:46:00,
2013-06-23 05:51:00,73.8,69.0,29.78,SSE,158,2.2,3.4,85,0.00,,,0.00,WUHU216HW,2013-06-23 10:51:00,
2013-06-23 05:56:00,73.8,69.0,29.78,South,180,4.5,4.5,85,0.00,,,0.00,WUHU216HW,2013-06-23 10:56:00,
2013-06-23 06:01:00,73.8,69.0,29.78,South,180,1.3,4.5,85,0.00,,,0.00,WUHU216HW,2013-06-23 11:01:00,
2013-06-23 06:06:00,73.6,68.9,29.78,South,180,1.8,3.8,85,0.00,,,0.00,WUHU216HW,2013-06-23 11:06:00,
2013-06-23 06:11:00,73.4,68.7,29.78,SSE,158,2.5,3.4,85,0.00,,,0.00,WUHU216HW,2013-06-23 11:11:00,
2013-06-23 06:16:00,73.4,68.7,29.78,South,180,3.1,3.1,85,0.00,,,0.00,WUHU216HW,2013-06-23 11:16:00,
2013-06-23 06:21:00,73.4,68.7,29.78,SSW,203,4.3,4.3,85,0.00,,,0.00,WUHU216HW,2013-06-23 11:21:00,
2013-06-23 06:26:00,73.6,69.2,29.78,SSE,158,3.4,4.3,86,0.00,,,0.00,WUHU216HW,2013-06-23 11:26:00,
2013-06-23 06:31:00,73.6,69.2,29.78,SSW,203,4.5,4.5,86,0.00,,,0.00,WUHU216HW,2013-06-23 11:31:00,
2013-06-23 06:36:00,73.8,69.4,29.78,SSW,203,3.1,4.5,86,0.00,,,0.00,WUHU216HW,2013-06-23 11:36:00,
2013-06-23 06:41:00,74.0,69.6,29.79,SSW,203,2.5,4.7,86,0.00,,,0.00,WUHU216HW,2013-06-23 11:41:00,
2013-06-23 06:46:00,74.2,69.8,29.78,SSE,158,1.8,5.4,86,0.00,,,0.00,WUHU216HW,2013-06-23 11:46:00,
2013-06-23 06:51:00,74.2,69.4,29.79,SSE,158,1.8,5.4,85,0.00,,,0.00,WUHU216HW,2013-06-23 11:51:00,
2013-06-23 06:56:00,74.3,69.6,29.79,WSW,248,2.5,4.0,85,0.00,,,0.00,WUHU216HW,2013-06-23 11:56:00,
2013-06-23 07:01:00,74.5,69.8,29.79,SSW,203,1.8,5.6,85,0.00,,,0.00,WUHU216HW,2013-06-23 12:01:00,
2013-06-23 07:06:00,74.7,69.9,29.79,SSW,203,1.3,5.6,85,0.00,,,0.00,WUHU216HW,2013-06-23 12:06:00,
2013-06-23 07:11:00,74.9,70.1,29.79,SE,135,1.8,3.6,85,0.00,,,0.00,WUHU216HW,2013-06-23 12:11:00,
2013-06-23 07:16:00,75.2,70.1,29.79,SE,135,2.9,4.7,84,0.00,,,0.00,WUHU216HW,2013-06-23 12:16:00,
2013-06-23 07:21:00,75.6,70.1,29.79,SSW,203,4.3,4.7,83,0.00,,,0.00,WUHU216HW,2013-06-23 12:21:00,
2013-06-23 07:26:00,76.0,70.5,29.79,SSW,203,4.3,6.0,83,0.00,,,0.00,WUHU216HW,2013-06-23 12:26:00,
2013-06-23 07:31:00,76.1,70.7,29.79,SE,135,2.0,6.0,83,0.00,,,0.00,WUHU216HW,2013-06-23 12:31:00,
2013-06-23 07:36:00,76.9,70.9,29.79,South,180,6.9,6.9,82,0.00,,,0.00,WUHU216HW,2013-06-23 12:36:00,
2013-06-23 07:41:00,77.8,71.1,29.79,South,180,1.8,6.9,80,0.00,,,0.00,WUHU216HW,2013-06-23 12:41:00,
2013-06-23 07:46:00,77.8,70.8,29.79,SSE,158,4.9,5.6,79,0.00,,,0.00,WUHU216HW,2013-06-23 12:46:00,
2013-06-23 07:51:00,77.8,70.8,29.79,SW,225,4.0,5.6,79,0.00,,,0.00,WUHU216HW,2013-06-23 12:51:00,
2013-06-23 07:56:00,78.7,71.2,29.79,SW,225,2.5,4.7,78,0.00,,,0.00,WUHU216HW,2013-06-23 12:56:00,
2013-06-23 08:01:00,79.0,71.2,29.79,SW,225,5.4,6.9,77,0.00,,,0.00,WUHU216HW,2013-06-23 13:01:00,
2013-06-23 08:06:00,78.7,70.8,29.79,SSW,203,1.1,6.9,77,0.00,,,0.00,WUHU216HW,2013-06-23 13:06:00,
2013-06-23 08:11:00,79.4,71.1,29.79,SSW,203,2.0,6.9,76,0.00,,,0.00,WUHU216HW,2013-06-23 13:11:00,
2013-06-23 08:16:00,79.9,71.3,29.79,SE,135,4.7,5.4,75,0.00,,,0.00,WUHU216HW,2013-06-23 13:16:00,
2013-06-23 08:21:00,80.3,71.6,29.79,SE,135,4.7,5.4,75,0.00,,,0.00,WUHU216HW,2013-06-23 13:21:00,
2013-06-23 08:26:00,81.0,71.6,29.80,South,180,4.0,4.7,73,0.00,,,0.00,WUHU216HW,2013-06-23 13:26:00,
2013-06-23 08:31:00,81.7,71.8,29.80,SSE,158,3.4,5.4,72,0.00,,,0.00,WUHU216HW,2013-06-23 13:31:00,
2013-06-23 08:36:00,81.9,71.6,29.80,SSE,158,4.0,5.8,71,0.00,,,0.00,WUHU216HW,2013-06-23 13:36:00,
2013-06-23 08:41:00,81.7,71.4,29.80,South,180,4.0,7.6,71,0.00,,,0.00,WUHU216HW,2013-06-23 13:41:00,
2013-06-23 08:46:00,82.1,71.3,29.80,SSE,158,3.4,8.5,70,0.00,,,0.00,WUHU216HW,2013-06-23 13:46:00,
2013-06-23 08:51:00,82.4,71.6,29.80,SSW,203,3.6,9.2,70,0.00,,,0.00,WUHU216HW,2013-06-23 13:51:00,
2013-06-23 08:56:00,82.6,71.4,29.81,South,180,7.4,9.2,69,0.00,,,0.00,WUHU216HW,2013-06-23 13:56:00,
2013-06-23 09:02:00,82.6,71.4,29.81,South,180,8.1,8.5,69,0.00,,,0.00,WUHU216HW,2013-06-23 14:02:00,
2013-06-23 09:07:00,82.4,70.7,29.81,WSW,248,3.8,8.5,68,0.00,,,0.00,WUHU216HW,2013-06-23 14:07:00,
2013-06-23 09:12:00,82.4,70.7,29.81,SSW,203,5.8,6.3,68,0.00,,,0.00,WUHU216HW,2013-06-23 14:12:00,
2013-06-23 09:17:00,82.6,70.9,29.80,South,180,3.4,7.2,68,0.00,,,0.00,WUHU216HW,2013-06-23 14:17:00,
2013-06-23 09:22:00,83.3,71.2,29.81,SE,135,3.4,7.2,67,0.00,,,0.00,WUHU216HW,2013-06-23 14:22:00,
2013-06-23 09:27:00,84.8,71.7,29.81,SSE,158,8.1,8.1,65,0.00,,,0.00,WUHU216HW,2013-06-23 14:27:00,
2013-06-23 09:32:00,85.9,71.8,29.80,South,180,5.1,8.1,63,0.00,,,0.00,WUHU216HW,2013-06-23 14:32:00,
2013-06-23 09:37:00,87.1,72.1,29.81,SSE,158,6.9,9.8,61,0.00,,,0.00,WUHU216HW,2013-06-23 14:37:00,
2013-06-23 09:42:00,89.3,72.5,29.81,SSE,158,3.4,9.8,58,0.00,,,0.00,WUHU216HW,2013-06-23 14:42:00,
2013-06-23 09:47:00,89.8,70.9,29.81,SW,225,6.7,8.5,54,0.00,,,0.00,WUHU216HW,2013-06-23 14:47:00,
2013-06-23 09:52:00,89.3,70.9,29.81,SSW,203,7.8,8.5,55,0.00,,,0.00,WUHU216HW,2013-06-23 14:52:00,
2013-06-23 09:57:00,88.9,70.7,29.81,South,180,7.6,9.8,55,0.00,,,0.00,WUHU216HW,2013-06-23 14:57:00,
2013-06-23 10:02:00,88.7,69.9,29.81,SSE,158,6.0,9.8,54,0.00,,,0.00,WUHU216HW,2013-06-23 15:02:00,
2013-06-23 10:07:00,89.1,70.3,29.81,SE,135,4.7,11.4,54,0.00,,,0.00,WUHU216HW,2013-06-23 15:07:00,
2013-06-23 10:12:00,90.2,70.7,29.81,South,180,6.3,11.4,53,0.00,,,0.00,WUHU216HW,2013-06-23 15:12:00,
2013-06-23 10:17:00,90.4,70.3,29.81,South,180,7.6,9.8,52,0.00,,,0.00,WUHU216HW,2013-06-23 15:17:00,
2013-06-23 10:22:00,90.0,70.0,29.81,SSW,203,4.7,8.1,52,0.00,,,0.00,WUHU216HW,2013-06-23 15:22:00,
2013-06-23 10:27:00,90.9,70.8,29.81,SW,225,4.5,7.6,52,0.00,,,0.00,WUHU216HW,2013-06-23 15:27:00,
2013-06-23 10:32:00,91.8,70.6,29.81,SSW,203,2.9,7.6,50,0.00,,,0.00,WUHU216HW,2013-06-23 15:32:00,
2013-06-23 10:37:00,93.1,70.4,29.81,South,180,4.9,8.5,48,0.00,,,0.00,WUHU216HW,2013-06-23 15:37:00,
2013-06-23 10:42:00,92.7,69.4,29.81,SSE,158,10.7,11.4,47,0.00,,,0.00,WUHU216HW,2013-06-23 15:42:00,
2013-06-23 10:47:00,92.2,69.6,29.81,SSW,203,6.9,12.1,48,0.00,,,0.00,WUHU216HW,2013-06-23 15:47:00,
2013-06-23 10:52:00,93.2,69.8,29.81,SE,135,8.3,12.1,47,0.00,,,0.00,WUHU216HW,2013-06-23 15:52:00,
2013-06-23 10:57:00,93.6,69.6,29.81,SSE,158,4.7,10.3,46,0.00,,,0.00,WUHU216HW,2013-06-23 15:57:00,
2013-06-23 11:02:00,93.8,69.8,29.81,SSW,203,4.0,10.3,46,0.00,,,0.00,WUHU216HW,2013-06-23 16:02:00,
2013-06-23 11:07:00,93.8,69.1,29.81,SSE,158,4.0,6.9,45,0.00,,,0.00,WUHU216HW,2013-06-23 16:07:00,
2013-06-23 11:12:00,93.2,69.2,29.81,WSW,248,5.1,7.6,46,0.00,,,0.00,WUHU216HW,2013-06-23 16:12:00,
2013-06-23 11:17:00,93.8,68.4,29.81,South,180,5.6,7.6,44,0.00,,,0.00,WUHU216HW,2013-06-23 16:17:00,
2013-06-23 11:22:00,93.6,69.0,29.81,SE,135,5.6,7.8,45,0.00,,,0.00,WUHU216HW,2013-06-23 16:22:00,
2013-06-23 11:27:00,93.2,68.6,29.81,SSW,203,4.3,8.5,45,0.00,,,0.00,WUHU216HW,2013-06-23 16:27:00,
2013-06-23 11:32:00,92.9,69.0,29.81,SSW,203,4.5,8.7,46,0.00,,,0.00,WUHU216HW,2013-06-23 16:32:00,
2013-06-23 11:37:00,94.0,68.6,29.81,SSW,203,4.3,8.9,44,0.00,,,0.00,WUHU216HW,2013-06-23 16:37:00,
2013-06-23 11:42:00,93.8,68.4,29.82,SW,225,4.7,10.3,44,0.00,,,0.00,WUHU216HW,2013-06-23 16:42:00,
2013-06-23 11:47:00,95.4,69.3,29.82,SSW,203,5.6,10.3,43,0.00,,,0.00,WUHU216HW,2013-06-23 16:47:00,
2013-06-23 11:52:00,95.2,69.1,29.82,SE,135,6.9,8.9,43,0.00,,,0.00,WUHU216HW,2013-06-23 16:52:00,
2013-06-23 11:57:00,94.1,68.1,29.82,SSW,203,6.5,9.8,43,0.00,,,0.00,WUHU216HW,2013-06-23 16:57:00,
2013-06-23 12:02:00,93.4,68.1,29.81,SW,225,3.4,9.8,44,0.00,,,0.00,WUHU216HW,2013-06-23 17:02:00,
2013-06-23 12:07:00,94.7,68.6,29.81,South,180,4.7,7.6,43,0.00,,,0.00,WUHU216HW,2013-06-23 17:07:00,
2013-06-23 12:12:00,94.3,67.6,29.81,SSE,158,5.1,10.7,42,0.00,,,0.00,WUHU216HW,2013-06-23 17:12:00,
2013-06-23 12:17:00,93.6,68.3,29.81,ESE,113,4.5,10.7,44,0.00,,,0.00,WUHU216HW,2013-06-23 17:17:00,
2013-06-23 12:22:00,92.3,67.8,29.81,South,180,6.9,8.9,45,0.00,,,0.00,WUHU216HW,2013-06-23 17:22:00,
2013-06-23 12:27:00,93.2,68.6,29.81,SE,135,4.7,8.9,45,0.00,,,0.00,WUHU216HW,2013-06-23 17:27:00,
2013-06-23 12:32:00,94.1,68.1,29.81,SSE,158,6.0,9.4,43,0.00,,,0.00,WUHU216HW,2013-06-23 17:32:00,
2013-06-23 12:37:00,92.3,66.5,29.81,SW,225,8.1,9.4,43,0.00,,,0.00,WUHU216HW,2013-06-23 17:37:00,
2013-06-23 12:42:00,92.9,66.3,29.81,SSW,203,10.7,10.7,42,0.00,,,0.00,WUHU216HW,2013-06-23 17:42:00,
2013-06-23 12:47:00,92.5,66.0,29.81,South,180,6.9,10.7,42,0.00,,,0.00,WUHU216HW,2013-06-23 17:47:00,
2013-06-23 12:52:00,92.3,65.8,29.81,East,90,5.4,11.0,42,0.00,,,0.00,WUHU216HW,2013-06-23 17:52:00,
2013-06-23 12:57:00,92.2,65.0,29.81,SSE,158,6.9,11.0,41,0.00,,,0.00,WUHU216HW,2013-06-23 17:57:00,
2013-06-23 13:02:00,92.5,64.7,29.81,SSE,158,4.9,7.6,40,0.00,,,0.00,WUHU216HW,2013-06-23 18:02:00,
2013-06-23 13:07:00,93.4,64.7,29.81,SE,135,9.8,9.8,39,0.00,,,0.00,WUHU216HW,2013-06-23 18:07:00,
2013-06-23 13:12:00,94.9,66.0,29.81,South,180,4.7,9.8,39,0.00,,,0.00,WUHU216HW,2013-06-23 18:12:00,
2013-06-23 13:17:00,94.1,64.5,29.81,SSE,158,11.9,12.1,38,0.00,,,0.00,WUHU216HW,2013-06-23 18:17:00,
2013-06-23 13:22:00,94.0,66.0,29.81,ESE,113,5.4,12.1,40,0.00,,,0.00,WUHU216HW,2013-06-23 18:22:00,
2013-06-23 13:27:00,94.1,64.5,29.81,South,180,5.8,9.8,38,0.00,,,0.00,WUHU216HW,2013-06-23 18:27:00,
2013-06-23 13:32:00,93.6,65.7,29.80,South,180,5.8,9.2,40,0.00,,,0.00,WUHU216HW,2013-06-23 18:32:00,
2013-06-23 13:37:00,94.3,66.3,29.80,South,180,2.5,8.7,40,0.00,,,0.00,WUHU216HW,2013-06-23 18:37:00,
2013-06-23 13:42:00,94.5,66.5,29.80,South,180,4.3,8.7,40,0.00,,,0.00,WUHU216HW,2013-06-23 18:42:00,
2013-06-23 13:48:00,94.3,67.0,29.80,South,180,6.3,10.5,41,0.00,,,0.00,WUHU216HW,2013-06-23 18:48:00,
2013-06-23 13:53:00,93.6,64.9,29.80,SSE,158,11.2,11.9,39,0.00,,,0.00,WUHU216HW,2013-06-23 18:53:00,
2013-06-23 13:58:00,93.6,64.9,29.80,SSE,158,7.2,11.9,39,0.00,,,0.00,WUHU216HW,2013-06-23 18:58:00,
2013-06-23 14:03:00,93.1,63.5,29.80,South,180,11.2,11.2,38,0.00,,,0.00,WUHU216HW,2013-06-23 19:03:00,
2013-06-23 14:08:00,92.7,64.9,29.80,SW,225,4.0,11.2,40,0.00,,,0.00,WUHU216HW,2013-06-23 19:08:00,
2013-06-23 14:13:00,94.0,66.6,29.79,SSE,158,3.4,9.2,41,0.00,,,0.00,WUHU216HW,2013-06-23 19:13:00,
2013-06-23 14:18:00,94.0,65.2,29.79,SE,135,6.9,8.9,39,0.00,,,0.00,WUHU216HW,2013-06-23 19:18:00,
2013-06-23 14:23:00,93.6,65.7,29.79,SW,225,3.4,8.7,40,0.00,,,0.00,WUHU216HW,2013-06-23 19:23:00,
2013-06-23 14:28:00,93.2,66.0,29.79,SW,225,7.6,8.7,41,0.00,,,0.00,WUHU216HW,2013-06-23 19:28:00,
2013-06-23 14:33:00,93.1,66.5,29.79,SE,135,6.9,9.6,42,0.00,,,0.00,WUHU216HW,2013-06-23 19:33:00,
2013-06-23 14:38:00,93.1,67.2,29.78,SSE,158,5.1,9.6,43,0.00,,,0.00,WUHU216HW,2013-06-23 19:38:00,
2013-06-23 14:43:00,92.7,66.2,29.78,SSE,158,5.4,10.5,42,0.00,,,0.00,WUHU216HW,2013-06-23 19:43:00,
2013-06-23 14:48:00,92.0,65.5,29.78,South,180,10.3,10.5,42,0.00,,,0.00,WUHU216HW,2013-06-23 19:48:00,
2013-06-23 14:53:00,92.2,66.3,29.78,South,180,5.8,10.3,43,0.00,,,0.00,WUHU216HW,2013-06-23 19:53:00,
2013-06-23 14:58:00,92.3,66.5,29.78,SE,135,7.2,7.2,43,0.00,,,0.00,WUHU216HW,2013-06-23 19:58:00,
2013-06-23 15:03:00,91.8,66.0,29.77,South,180,6.9,9.6,43,0.00,,,0.00,WUHU216HW,2013-06-23 20:03:00,
2013-06-23 15:08:00,91.4,65.7,29.77,South,180,7.4,9.6,43,0.00,,,0.00,WUHU216HW,2013-06-23 20:08:00,
2013-06-23 15:13:00,91.8,67.3,29.77,South,180,4.9,7.8,45,0.00,,,0.00,WUHU216HW,2013-06-23 20:13:00,
2013-06-23 15:18:00,92.2,67.0,29.77,SSE,158,5.4,5.4,44,0.00,,,0.00,WUHU216HW,2013-06-23 20:18:00,
2013-06-23 15:23:00,92.2,66.3,29.77,South,180,7.4,7.4,43,0.00,,,0.00,WUHU216HW,2013-06-23 20:23:00,
2013-06-23 15:28:00,92.0,65.5,29.77,WSW,248,8.5,8.5,42,0.00,,,0.00,WUHU216HW,2013-06-23 20:28:00,
2013-06-23 15:33:00,91.8,64.1,29.77,SSE,158,7.2,9.8,40,0.00,,,0.00,WUHU216HW,2013-06-23 20:33:00,
2013-06-23 15:38:00,92.0,64.2,29.77,ESE,113,5.8,9.8,40,0.00,,,0.00,WUHU216HW,2013-06-23 20:38:00,
2013-06-23 15:43:00,92.5,63.9,29.76,SE,135,7.8,7.8,39,0.00,,,0.00,WUHU216HW,2013-06-23 20:43:00,
2013-06-23 15:48:00,92.2,62.7,29.76,SE,135,4.0,8.5,38,0.00,,,0.00,WUHU216HW,2013-06-23 20:48:00,
2013-06-23 15:53:00,91.8,63.3,29.76,SE,135,6.7,8.5,39,0.00,,,0.00,WUHU216HW,2013-06-23 20:53:00,
2013-06-23 15:58:00,91.8,64.1,29.76,ESE,113,4.9,8.5,40,0.00,,,0.00,WUHU216HW,2013-06-23 20:58:00,
2013-06-23 16:03:00,92.0,63.5,29.76,SE,135,5.6,7.6,39,0.00,,,0.00,WUHU216HW,2013-06-23 21:03:00,
2013-06-23 16:08:00,92.0,63.5,29.75,SE,135,4.7,7.6,39,0.00,,,0.00,WUHU216HW,2013-06-23 21:08:00,
2013-06-23 16:13:00,92.2,64.4,29.75,SSE,158,3.1,6.9,40,0.00,,,0.00,WUHU216HW,2013-06-23 21:13:00,
2013-06-23 16:18:00,92.3,63.7,29.75,SE,135,5.4,7.2,39,0.00,,,0.00,WUHU216HW,2013-06-23 21:18:00,
2013-06-23 16:23:00,92.3,63.7,29.75,ESE,113,6.7,7.2,39,0.00,,,0.00,WUHU216HW,2013-06-23 21:23:00,
2013-06-23 16:28:00,92.3,64.5,29.74,SSE,158,4.7,6.7,40,0.00,,,0.00,WUHU216HW,2013-06-23 21:28:00,
2013-06-23 16:33:00,92.5,64.7,29.74,SW,225,3.1,9.8,40,0.00,,,0.00,WUHU216HW,2013-06-23 21:33:00,
2013-06-23 16:38:00,92.7,64.1,29.74,South,180,4.7,9.8,39,0.00,,,0.00,WUHU216HW,2013-06-23 21:38:00,
2013-06-23 16:43:00,92.5,63.9,29.74,ESE,113,4.7,6.3,39,0.00,,,0.00,WUHU216HW,2013-06-23 21:43:00,
2013-06-23 16:48:00,92.7,64.9,29.73,South,180,3.1,6.0,40,0.00,,,0.00,WUHU216HW,2013-06-23 21:48:00,
2013-06-23 16:53:00,93.1,65.2,29.73,SW,225,4.0,5.4,40,0.00,,,0.00,WUHU216HW,2013-06-23 21:53:00,
2013-06-23 16:58:00,93.4,63.9,29.74,SSE,158,6.5,6.5,38,0.00,,,0.00,WUHU216HW,2013-06-23 21:58:00,
2013-06-23 17:03:00,93.8,64.2,29.73,ESE,113,2.7,7.6,38,0.00,,,0.00,WUHU216HW,2013-06-23 22:03:00,
2013-06-23 17:08:00,93.6,64.1,29.73,SSW,203,3.1,7.6,38,0.00,,,0.00,WUHU216HW,2013-06-23 22:08:00,
2013-06-23 17:13:00,93.6,64.1,29.73,SW,225,6.0,7.6,38,0.00,,,0.00,WUHU216HW,2013-06-23 22:13:00,
2013-06-23 17:18:00,93.6,64.1,29.73,SSW,203,6.0,7.6,38,0.00,,,0.00,WUHU216HW,2013-06-23 22:18:00,
2013-06-23 17:23:00,93.6,63.3,29.73,South,180,5.8,6.7,37,0.00,,,0.00,WUHU216HW,2013-06-23 22:23:00,
2013-06-23 17:28:00,93.2,62.1,29.73,SW,225,2.9,6.9,36,0.00,,,0.00,WUHU216HW,2013-06-23 22:28:00,
2013-06-23 17:33:00,93.2,62.1,29.73,SSE,158,2.7,6.9,36,0.00,,,0.00,WUHU216HW,2013-06-23 22:33:00,
2013-06-23 17:38:00,93.1,61.9,29.73,SSE,158,4.7,5.8,36,0.00,,,0.00,WUHU216HW,2013-06-23 22:38:00,
2013-06-23 17:43:00,92.9,61.0,29.73,SSE,158,6.0,6.0,35,0.00,,,0.00,WUHU216HW,2013-06-23 22:43:00,
2013-06-23 17:48:00,92.5,61.5,29.73,South,180,9.2,9.2,36,0.00,,,0.00,WUHU216HW,2013-06-23 22:48:00,
2013-06-23 17:53:00,92.3,61.3,29.73,SW,225,6.3,9.2,36,0.00,,,0.00,WUHU216HW,2013-06-23 22:53:00,
2013-06-23 17:58:00,92.2,62.7,29.73,SSW,203,5.8,9.8,38,0.00,,,0.00,WUHU216HW,2013-06-23 22:58:00,
2013-06-23 18:03:00,92.2,63.5,29.73,SSW,203,5.8,9.8,39,0.00,,,0.00,WUHU216HW,2013-06-23 23:03:00,
2013-06-23 18:08:00,91.8,63.3,29.73,SSE,158,4.7,8.5,39,0.00,,,0.00,WUHU216HW,2013-06-23 23:08:00,
2013-06-23 18:13:00,92.2,64.4,29.73,SSW,203,4.7,8.5,40,0.00,,,0.00,WUHU216HW,2013-06-23 23:13:00,
2013-06-23 18:18:00,92.3,63.7,29.73,SW,225,6.5,9.6,39,0.00,,,0.00,WUHU216HW,2013-06-23 23:18:00,
2013-06-23 18:23:00,92.3,62.9,29.73,South,180,6.0,9.6,38,0.00,,,0.00,WUHU216HW,2013-06-23 23:23:00,
2013-06-23 18:28:00,92.2,63.5,29.72,South,180,4.7,8.5,39,0.00,,,0.00,WUHU216HW,2013-06-23 23:28:00,
2013-06-23 18:33:00,92.0,62.7,29.72,South,180,5.6,8.5,38,0.00,,,0.00,WUHU216HW,2013-06-23 23:33:00,
2013-06-23 18:38:00,91.8,62.5,29.72,South,180,5.4,8.1,38,0.00,,,0.00,WUHU216HW,2013-06-23 23:38:00,
2013-06-23 18:43:00,91.8,62.5,29.72,SSE,158,5.4,8.1,38,0.00,,,0.00,WUHU216HW,2013-06-23 23:43:00,
2013-06-23 18:48:00,91.6,62.3,29.72,SSE,158,6.0,8.5,38,0.00,,,0.00,WUHU216HW,2013-06-23 23:48:00,
2013-06-23 18:53:00,91.4,62.9,29.72,SSE,158,7.6,8.9,39,0.00,,,0.00,WUHU216HW,2013-06-23 23:53:00,
2013-06-23 18:58:00,91.1,62.7,29.73,SSW,203,3.1,8.9,39,0.00,,,0.00,WUHU216HW,2013-06-23 23:58:00,
2013-06-23 19:03:00,90.9,62.5,29.73,SSW,203,8.9,8.9,39,0.00,,,0.00,WUHU216HW,2013-06-24 00:03:00,
2013-06-23 19:08:00,90.7,62.3,29.73,South,180,2.7,8.9,39,0.00,,,0.00,WUHU216HW,2013-06-24 00:08:00,
2013-06-23 19:13:00,90.4,61.9,29.73,SSW,203,6.9,11.2,39,0.00,,,0.00,WUHU216HW,2013-06-24 00:13:00,
2013-06-23 19:18:00,90.4,62.7,29.73,SE,135,5.4,11.2,40,0.00,,,0.00,WUHU216HW,2013-06-24 00:18:00,
2013-06-23 19:23:00,90.2,62.6,29.73,South,180,4.5,6.9,40,0.00,,,0.00,WUHU216HW,2013-06-24 00:23:00,
2013-06-23 19:28:00,90.0,62.5,29.73,SSW,203,5.6,7.2,40,0.00,,,0.00,WUHU216HW,2013-06-24 00:28:00,
2013-06-23 19:33:00,90.0,62.5,29.73,SSW,203,2.9,7.2,40,0.00,,,0.00,WUHU216HW,2013-06-24 00:33:00,
2013-06-23 19:38:00,89.6,61.3,29.73,SE,135,6.0,6.3,39,0.00,,,0.00,WUHU216HW,2013-06-24 00:38:00,
2013-06-23 19:43:00,89.3,61.0,29.73,SW,225,7.2,7.2,39,0.00,,,0.00,WUHU216HW,2013-06-24 00:43:00,
2013-06-23 19:48:00,89.1,60.8,29.73,SE,135,1.8,7.2,39,0.00,,,0.00,WUHU216HW,2013-06-24 00:48:00,
2013-06-23 19:53:00,88.7,60.6,29.73,ESE,113,2.0,6.5,39,0.00,,,0.00,WUHU216HW,2013-06-24 00:53:00,
2013-06-23 19:58:00,88.6,60.4,29.73,SSE,158,4.7,6.3,39,0.00,,,0.00,WUHU216HW,2013-06-24 00:58:00,
2013-06-23 20:03:00,88.2,60.1,29.73,SSE,158,3.6,6.3,39,0.00,,,0.00,WUHU216HW,2013-06-24 01:03:00,
2013-06-23 20:08:00,88.0,60.9,29.73,SE,135,2.9,6.3,40,0.00,,,0.00,WUHU216HW,2013-06-24 01:08:00,
2013-06-23 20:13:00,87.7,60.5,29.73,South,180,4.9,6.5,40,0.00,,,0.00,WUHU216HW,2013-06-24 01:13:00,
2013-06-23 20:18:00,87.5,60.3,29.73,South,180,2.7,6.5,40,0.00,,,0.00,WUHU216HW,2013-06-24 01:18:00,
2013-06-23 20:23:00,87.1,60.0,29.73,SSW,203,2.0,5.1,40,0.00,,,0.00,WUHU216HW,2013-06-24 01:23:00,
2013-06-23 20:28:00,86.8,58.9,29.73,SSE,158,2.0,4.9,39,0.00,,,0.00,WUHU216HW,2013-06-24 01:28:00,
2013-06-23 20:33:00,86.4,58.6,29.73,SW,225,4.0,4.9,39,0.00,,,0.00,WUHU216HW,2013-06-24 01:33:00,
2013-06-23 20:38:00,86.0,59.7,29.73,SSE,158,1.8,5.4,41,0.00,,,0.00,WUHU216HW,2013-06-24 01:38:00,
2013-06-23 20:43:00,85.7,58.0,29.73,South,180,2.9,5.4,39,0.00,,,0.00,WUHU216HW,2013-06-24 01:43:00,
2013-06-23 20:48:00,85.3,58.4,29.73,South,180,1.6,4.7,40,0.00,,,0.00,WUHU216HW,2013-06-24 01:48:00,
2013-06-23 20:53:00,85.1,58.2,29.73,SSE,158,1.8,4.7,40,0.00,,,0.00,WUHU216HW,2013-06-24 01:53:00,
2013-06-23 20:58:00,85.0,58.7,29.74,South,180,3.4,6.7,41,0.00,,,0.00,WUHU216HW,2013-06-24 01:58:00,
2013-06-23 21:03:00,84.6,58.4,29.74,South,180,1.3,6.7,41,0.00,,,0.00,WUHU216HW,2013-06-24 02:03:00,
2013-06-23 21:08:00,84.2,58.7,29.74,SSW,203,0.4,2.5,42,0.00,,,0.00,WUHU216HW,2013-06-24 02:08:00,
2013-06-23 21:13:00,83.7,58.1,29.75,SSE,158,0.9,1.8,42,0.00,,,0.00,WUHU216HW,2013-06-24 02:13:00,
2013-06-23 21:18:00,83.5,58.7,29.74,SE,135,0.0,1.8,43,0.00,,,0.00,WUHU216HW,2013-06-24 02:18:00,
2013-06-23 21:23:00,83.2,58.3,29.75,SE,135,0.0,1.6,43,0.00,,,0.00,WUHU216HW,2013-06-24 02:23:00,
2013-06-23 21:28:00,82.8,58.0,29.75,SE,135,0.9,2.7,43,0.00,,,0.00,WUHU216HW,2013-06-24 02:28:00,
2013-06-23 21:33:00,82.4,58.2,29.75,SE,135,1.3,2.7,44,0.00,,,0.00,WUHU216HW,2013-06-24 02:33:00,
2013-06-23 21:38:00,82.3,58.1,29.76,SE,135,1.1,2.5,44,0.00,,,0.00,WUHU216HW,2013-06-24 02:38:00,
2013-06-23 21:43:00,81.9,57.8,29.76,ESE,113,1.1,3.4,44,0.00,,,0.00,WUHU216HW,2013-06-24 02:43:00,
2013-06-23 21:48:00,81.7,58.2,29.76,SE,135,1.8,3.4,45,0.00,,,0.00,WUHU216HW,2013-06-24 02:48:00,
2013-06-23 21:53:00,81.4,58.5,29.76,East,90,1.8,2.2,46,0.00,,,0.00,WUHU216HW,2013-06-24 02:53:00,
2013-06-23 21:58:00,81.4,58.5,29.76,SE,135,1.8,2.2,46,0.00,,,0.00,WUHU216HW,2013-06-24 02:58:00,
2013-06-23 22:03:00,81.2,59.0,29.77,SSE,158,2.9,2.9,47,0.00,,,0.00,WUHU216HW,2013-06-24 03:03:00,
2013-06-23 22:08:00,81.2,59.6,29.77,SE,135,2.7,2.9,48,0.00,,,0.00,WUHU216HW,2013-06-24 03:08:00,
2013-06-23 22:13:00,81.2,59.6,29.77,SE,135,1.8,4.0,48,0.00,,,0.00,WUHU216HW,2013-06-24 03:13:00,
2013-06-23 22:18:00,81.4,59.8,29.77,South,180,3.4,4.5,48,0.00,,,0.00,WUHU216HW,2013-06-24 03:18:00,
2013-06-23 22:23:00,81.5,59.9,29.77,SSE,158,4.0,4.5,48,0.00,,,0.00,WUHU216HW,2013-06-24 03:23:00,
2013-06-23 22:28:00,81.5,59.9,29.77,SE,135,3.6,4.0,48,0.00,,,0.00,WUHU216HW,2013-06-24 03:28:00,
2013-06-23 22:33:00,81.7,60.7,29.78,SE,135,4.7,4.7,49,0.00,,,0.00,WUHU216HW,2013-06-24 03:33:00,
2013-06-23 22:38:00,81.7,60.7,29.78,SE,135,3.8,4.7,49,0.00,,,0.00,WUHU216HW,2013-06-24 03:38:00,
2013-06-23 22:43:00,81.7,61.3,29.78,SE,135,3.1,6.3,50,0.00,,,0.00,WUHU216HW,2013-06-24 03:43:00,
2013-06-23 22:48:00,81.5,61.7,29.78,SSE,158,4.9,6.3,51,0.00,,,0.00,WUHU216HW,2013-06-24 03:48:00,
2013-06-23 22:53:00,81.4,61.5,29.78,SSE,158,6.3,6.3,51,0.00,,,0.00,WUHU216HW,2013-06-24 03:53:00,
2013-06-23 22:58:00,81.4,62.0,29.78,SE,135,2.5,7.8,52,0.00,,,0.00,WUHU216HW,2013-06-24 03:58:00,
2013-06-23 23:01:00,81.2,62.4,29.79,ESE,113,3.4,7.8,53,0.00,,,0.00,WUHU216HW,2013-06-24 04:01:00,
2013-06-23 23:06:00,81.0,62.7,29.78,SSE,158,5.6,5.8,54,0.00,,,0.00,WUHU216HW,2013-06-24 04:06:00,
2013-06-23 23:11:00,81.0,63.3,29.79,NE,45,1.1,5.8,55,0.00,,,0.00,WUHU216HW,2013-06-24 04:11:00,
2013-06-23 23:16:00,80.6,62.9,29.78,SSE,158,6.3,6.3,55,0.00,,,0.00,WUHU216HW,2013-06-24 04:16:00,
2013-06-23 23:21:00,80.5,63.3,29.79,SSE,158,1.3,6.3,56,0.00,,,0.00,WUHU216HW,2013-06-24 04:21:00,
2013-06-23 23:26:00,80.3,63.6,29.79,South,180,1.8,4.0,57,0.00,,,0.00,WUHU216HW,2013-06-24 04:26:00,
2013-06-23 23:31:00,80.1,64.0,29.79,South,180,4.5,4.9,58,0.00,,,0.00,WUHU216HW,2013-06-24 04:31:00,
2013-06-23 23:36:00,79.9,64.4,29.79,SSE,158,2.2,5.4,59,0.00,,,0.00,WUHU216HW,2013-06-24 04:36:00,
2013-06-23 23:41:00,79.9,64.9,29.79,South,180,3.4,5.4,60,0.00,,,0.00,WUHU216HW,2013-06-24 04:41:00,
2013-06-23 23:46:00,79.7,64.7,29.79,WSW,248,5.4,8.7,60,0.00,,,0.00,WUHU216HW,2013-06-24 04:46:00,
2013-06-23 23:51:00,79.7,65.2,29.80,SSW,203,2.9,10.5,61,0.00,,,0.00,WUHU216HW,2013-06-24 04:51:00,
2013-06-23 23:56:00,79.6,65.4,29.79,WSW,248,8.3,10.5,62,0.00,,,0.00,WUHU216HW,2013-06-24 04:56:00,